K3ZED-2 Weather Reports


Display with metric or nautical units.
time (UTC)temp
F
wind
direction
speed
MPH
gust
MPH
rain 1hr
in
rain 24hr
in
rain mn
in
humidity
%
barometer
mb
20260508131548 56 236 0.0 6.0 0.00 0.00 0.00 65 1015.4
20260508130044 54 258 1.0 7.0 0.00 0.00 0.00 62 1015.5
20260508124540 53 232 1.0 10.0 0.00 0.00 0.00 66 1015.3
20260508123037 51 253 0.0 0.0 0.00 0.00 0.00 69 1015.5
20260508121547 0 0.0 0.0 0.31 0.00 0.00
20260508121539 49 262 0.0 0.0 0.00 0.00 0.00 76 1015.3
20260508121510 50 264 0.0 0.0 0.00 0.00 0.00 77 1014.9
20260508121012 48 268 0.0 0.0 0.00 0.00 0.00 79 1014.8
20260508120510 47 269 0.0 0.0 0.00 0.00 0.00 81 1014.7
20260508120133 46 268 0.0 0.0 0.00 0.00 0.00 85 1015.1
20260508120010 47 277 0.0 0.0 0.00 0.00 0.00 85 1014.7
20260508115010 45 307 0.0 0.0 0.00 0.00 0.00 92 1014.8
20260508114657 43 310 0.0 0.0 0.00 0.00 0.00 93 1015.1
20260508114511 44 310 0.0 0.0 0.00 0.00 0.00 93 1014.7
20260508113102 42 37 0.0 0.0 0.00 0.00 0.00 93 1015.0
20260508111552 41 39 0.0 0.0 0.00 0.00 0.00 94 1014.8
20260508110051 39 39 0.0 0.0 0.00 0.00 0.00 93 1014.8
20260508104549 39 39 0.0 0.0 0.00 0.00 0.00 92 1014.5
20260508103049 38 43 0.0 0.0 0.00 0.00 0.00 91 1014.5
20260508101546 38 43 0.0 0.0 0.00 0.00 0.00 90 1014.4
20260508100043 39 43 0.0 0.0 0.00 0.00 0.00 89 1014.2
20260508094602 39 44 0.0 0.0 0.00 0.00 0.00 88 1014.0
20260508093037 40 44 0.0 0.0 0.00 0.00 0.00 87 1013.9
20260508091540 41 48 0.0 0.0 0.00 0.00 0.00 87 1013.9
20260508090029 42 325 0.0 0.0 0.00 0.00 0.00 84 1013.9
20260508084525 43 325 0.0 0.0 0.00 0.00 0.00 82 1013.8
20260508083022 45 325 0.0 0.0 0.00 0.00 0.00 82 1013.5
20260508081548 46 314 0.0 0.0 0.00 0.00 0.00 80 1013.4
20260508080015 47 326 0.0 0.0 0.00 0.00 0.00 79 1013.1
20260508074512 47 320 0.0 8.0 0.00 0.04 0.00 78 1013.0
20260508073014 48 352 0.0 9.0 0.00 0.04 0.00 77 1012.7
20260508071526 49 305 0.0 11.0 0.00 0.04 0.00 75 1012.7
20260508070008 50 303 2.0 10.0 0.00 0.04 0.00 74 1012.5
20260508064510 50 300 2.0 12.0 0.00 0.07 0.00 72 1012.4
20260508063009 51 338 2.0 12.0 0.00 0.07 0.00 70 1012.2
20260508061600 51 305 0.0 11.0 0.00 0.07 0.00 71 1011.9
20260508054554 48 320 2.0 10.0 0.00 0.13 0.00 86 1011.5
20260508053055 48 289 0.0 0.0 0.00 0.13 0.00 85 1011.2
20260508051552 48 278 0.0 0.0 0.00 0.13 0.00 84 1011.1
20260508050047 49 243 0.0 5.0 0.00 0.13 0.00 83 1010.9
20260508044543 50 243 0.0 0.0 0.00 0.23 0.00 82 1010.8
20260508043040 51 228 0.0 0.0 0.00 0.23 0.00 81 1010.8
20260508041538 51 232 0.0 0.0 0.00 0.23 0.00 80 1010.7
20260508040045 51 248 0.0 3.0 0.00 0.23 0.00 79 1010.5
20260508034536 51 244 0.0 5.0 0.00 0.23 0.23 79 1010.5
20260508033035 51 241 0.0 5.0 0.00 0.23 0.23 79 1010.5
20260508031536 51 251 0.0 7.0 0.00 0.23 0.23 80 1010.6
20260508030035 51 230 0.0 0.0 0.00 0.23 0.23 80 1010.5
20260508024545 51 230 0.0 2.0 0.00 0.23 0.23 80 1010.5
20260508023033 52 225 0.0 2.0 0.00 0.23 0.23 79 1010.5
20260508021534 52 224 0.0 4.0 0.00 0.23 0.23 79 1010.5
20260508020033 51 222 0.0 7.0 0.00 0.23 0.23 79 1010.4
20260508014540 49 230 0.0 7.0 0.00 0.24 0.23 81 1010.3
20260508013030 48 230 0.0 0.0 0.00 0.24 0.23 81 1010.1
20260508011529 49 25 0.0 0.0 0.00 0.24 0.23 79 1009.9
20260508010034 50 25 0.0 0.0 0.00 0.24 0.23 76 1009.5
20260508004527 51 25 0.0 0.0 0.00 0.24 0.23 73 1009.4
20260508003028 53 25 0.0 0.0 0.00 0.24 0.23 70 1009.3
20260508001528 55 25 0.0 0.0 0.00 0.24 0.23 67 1009.2
20260508000027 57 31 0.0 0.0 0.00 0.24 0.23 61 1009.1
20260507234527 59 31 0.0 0.0 0.00 0.24 0.23 57 1008.9
20260507233037 60 31 0.0 0.0 0.00 0.24 0.23 51 1008.8
20260507231534 61 31 0.0 0.0 0.00 0.24 0.23 47 1008.7
20260507230025 62 47 0.0 3.0 0.00 0.24 0.23 46 1008.9
20260507224530 64 356 0.0 0.0 0.00 0.24 0.23 44 1008.6
20260507223023 63 314 0.0 0.0 0.00 0.24 0.23 43 1008.7
20260507221533 63 74 0.0 1.0 0.00 0.24 0.23 43 1008.7
20260507220022 63 342 0.0 6.0 0.00 0.24 0.23 50 1008.7
20260507214521 64 55 2.0 11.0 0.00 0.24 0.23 45 1008.8
20260507213023 64 17 1.0 9.0 0.00 0.24 0.23 43 1008.9
20260507211524 64 43 0.0 9.0 0.00 0.24 0.23 46 1008.9
20260507210018 64 70 0.0 5.0 0.00 0.24 0.23 45 1008.8
20260507204517 64 316 0.0 4.0 0.00 0.24 0.23 45 1008.7
20260507203015 63 285 0.0 10.0 0.00 0.24 0.23 45 1008.6
20260507201514 63 55 0.0 3.0 0.00 0.24 0.23 48 1008.8
20260507200013 63 272 4.0 12.0 0.00 0.24 0.23 46 1008.9
20260507194512 62 295 8.0 13.0 0.00 0.24 0.23 48 1009.0
20260507193009 62 335 0.0 8.0 0.00 0.24 0.23 50 1009.3
20260507191507 62 326 2.0 11.0 0.00 0.24 0.23 48 1009.4
20260507190007 62 314 1.0 8.0 0.00 0.24 0.23 51 1009.4
20260507184503 61 256 2.0 13.0 0.00 0.24 0.23 44 1009.8
20260507183007 61 344 4.0 13.0 0.00 0.24 0.23 48 1010.0
20260507181502 61 279 0.0 14.0 0.00 0.24 0.23 51 1010.0
20260507174559 61 70 0.0 11.0 0.00 0.24 0.23 54 1010.1
20260507173104 61 307 0.0 11.0 0.00 0.24 0.23 53 1010.3
20260507171555 60 297 0.0 9.0 0.00 0.24 0.23 52 1010.6
20260507164559 59 303 0.0 11.0 0.00 0.24 0.23 56 1011.0
20260507163054 59 297 1.0 12.0 0.00 0.24 0.23 58 1011.2
20260507161548 59 6 1.0 8.0 0.00 0.24 0.23 59 1011.5
20260507160046 58 300 0.0 8.0 0.00 0.24 0.23 60 1011.6
20260507154551 57 57 1.0 11.0 0.00 0.28 0.23 59 1011.6
20260507153042 56 356 0.0 2.0 0.00 0.28 0.23 64 1011.9
20260507151541 55 69 0.0 5.0 0.00 0.28 0.23 67 1012.0
20260507150040 55 336 2.0 10.0 0.00 0.28 0.23 65 1012.3
20260507144539 54 356 0.0 11.0 0.00 0.34 0.23 69 1012.5
20260507143039 53 338 0.0 10.0 0.00 0.34 0.23 68 1012.8
20260507141539 53 42 0.0 10.0 0.00 0.34 0.23 73 1012.8
20260507140037 52 37 3.0 11.0 0.00 0.34 0.23 72 1012.9
20260507134538 51 317 1.0 9.0 0.00 0.35 0.23 73 1012.9
20260507133043 50 282 0.0 4.0 0.00 0.35 0.23 78 1013.0